EW7114 Weather Reports


time (UTC)temp
F
wind
direction
speed
knots
gust
knots
rain 1hr
in
rain 24hr
in
rain mn
in
humidity
%
barometer
mb
20260906053543 72 155 11.3 16.5 0.00 0.00 0.00 27 1003.7
20260906053042 72 128 11.3 16.5 0.00 0.00 0.00 27 1003.6
20260906052542 72 163 11.3 17.4 0.00 0.00 0.00 27 1003.7
20260906052041 72 157 12.2 18.2 0.00 0.00 0.00 28 1003.7
20260906051549 71 154 11.3 16.5 0.00 0.00 0.00 28 1003.8
20260906051042 72 156 11.3 16.5 0.00 0.00 0.00 28 1003.7
20260906050546 72 136 11.3 15.6 0.00 0.00 0.00 27 1003.7
20260906050047 72 145 12.2 15.6 0.00 0.00 0.00 28 1003.6
20260906045545 72 168 9.6 13.9 0.00 0.00 0.00 27 1003.7
20260906045041 72 153 10.4 15.6 0.00 0.00 0.00 28 1003.7
20260906044542 71 160 10.4 15.6 0.00 0.00 0.00 28 1003.8
20260906044042 71 151 10.4 14.8 0.00 0.00 0.00 28 1003.8
20260906043540 71 144 9.6 13.9 0.00 0.00 0.00 28 1003.8
20260906043040 71 138 10.4 13.9 0.00 0.00 0.00 28 1003.7
20260906042542 71 141 9.6 13.0 0.00 0.00 0.00 29 1003.6
20260906042039 71 136 9.6 13.9 0.00 0.00 0.00 29 1003.6
20260906041639 70 142 9.6 13.9 0.00 0.00 0.00 29 1003.5
20260906041038 70 155 9.6 13.9 0.00 0.00 0.00 29 1003.6
20260906040539 68 140 10.4 13.9 0.00 0.00 0.00 30 1003.4
20260906040042 68 145 7.0 10.4 0.00 0.00 0.00 30 1003.5
20260906035539 69 167 7.8 13.0 0.00 0.00 0.00 28 1003.4
20260906035040 69 143 8.7 13.0 0.00 0.00 0.00 28 1003.3
20260906034538 70 143 7.8 13.0 0.00 0.00 0.00 28 1003.3
20260906034037 71 136 9.6 13.0 0.00 0.00 0.00 28 1003.2
20260906033537 71 159 8.7 13.9 0.00 0.00 0.00 26 1003.2
20260906033045 71 138 9.6 13.9 0.00 0.00 0.00 27 1003.0
20260906032537 71 145 8.7 11.3 0.00 0.00 0.00 27 1003.0
20260906032039 72 128 8.7 13.0 0.00 0.00 0.00 27 1002.9
20260906031636 72 147 8.7 13.9 0.00 0.00 0.00 27 1002.9
20260906031036 73 143 9.6 14.8 0.00 0.00 0.00 27 1002.8
20260906030536 73 145 8.7 15.6 0.00 0.00 0.00 26 1002.7
20260906030038 72 153 10.4 15.6 0.00 0.00 0.00 26 1002.6
20260906025535 73 131 8.7 13.0 0.00 0.00 0.00 27 1002.5
20260906025036 73 145 8.7 13.0 0.00 0.00 0.00 26 1002.5
20260906024537 73 143 7.8 12.2 0.00 0.00 0.00 26 1002.4
20260906024035 74 147 9.6 11.3 0.00 0.00 0.00 24 1002.3
20260906023536 74 157 9.6 13.0 0.00 0.00 0.00 24 1002.3
20260906023037 74 159 9.6 13.0 0.00 0.00 0.00 24 1002.2
20260906022535 73 152 9.6 13.9 0.00 0.00 0.00 25 1002.1
20260906022034 73 155 7.8 10.4 0.00 0.00 0.00 26 1002.0
20260906021533 74 148 7.8 12.2 0.00 0.00 0.00 26 1001.9
20260906021033 75 168 7.8 12.2 0.00 0.00 0.00 25 1001.9
20260906020534 75 153 8.7 12.2 0.00 0.00 0.00 26 1001.8
20260906020034 76 162 8.7 14.8 0.00 0.00 0.00 24 1001.9
20260906015533 77 162 8.7 15.6 0.00 0.00 0.00 23 1001.9
20260906015033 78 157 8.7 16.5 0.00 0.00 0.00 23 1001.9
20260906014535 79 158 11.3 20.0 0.00 0.00 0.00 22 1001.9
20260906014032 79 188 12.2 20.0 0.00 0.00 0.00 21 1001.9
20260906013532 79 169 12.2 18.2 0.00 0.00 0.00 21 1001.8
20260906013033 80 165 13.0 20.0 0.00 0.00 0.00 21 1002.0
20260906012535 80 173 12.2 20.0 0.00 0.00 0.00 22 1002.0
20260906012031 81 165 11.3 17.4 0.00 0.00 0.00 22 1002.0
20260906011536 81 161 11.3 17.4 0.00 0.00 0.00 22 1002.0
20260906011031 82 134 13.9 20.9 0.00 0.00 0.00 21 1001.9
20260906010530 82 183 13.9 20.9 0.00 0.00 0.00 21 1002.0
20260906010032 82 176 13.0 22.6 0.00 0.00 0.00 21 1001.9
20260906005529 82 172 13.9 22.6 0.00 0.00 0.00 21 1001.9
20260906005029 83 193 14.8 20.0 0.00 0.00 0.00 21 1001.9
20260906004529 83 169 13.9 21.7 0.00 0.00 0.00 21 1001.9
20260906004028 83 169 13.9 21.7 0.00 0.00 0.00 21 1001.9
20260906003528 84 176 12.2 20.0 0.00 0.00 0.00 21 1001.9
20260906003028 84 157 12.2 20.0 0.00 0.00 0.00 22 1001.9
20260906002529 84 153 11.3 27.8 0.00 0.00 0.00 22 1001.9
20260906002026 83 129 17.4 27.8 0.00 0.00 0.00 22 1001.9
20260906001526 83 140 9.6 20.0 0.00 0.00 0.00 24 1001.9
20260906001025 84 151 13.9 20.9 0.00 0.00 0.00 23 1002.0
20260906000525 84 146 12.2 18.2 0.00 0.00 0.00 22 1001.9
20260906000025 84 180 10.4 20.9 0.00 0.00 0.00 22 1002.0
20260905235524 84 172 15.6 24.3 0.00 0.00 0.00 21 1002.2
20260905235025 84 135 17.4 25.2 0.00 0.00 0.00 22 1002.1
20260905234523 84 165 15.6 25.2 0.00 0.00 0.00 21 1002.0
20260905234024 85 179 15.6 24.3 0.00 0.00 0.00 21 1002.1
20260905233524 85 138 13.9 20.0 0.00 0.00 0.00 21 1002.2
20260905233021 85 190 10.4 21.7 0.00 0.00 0.00 21 1002.1
20260905232522 85 161 13.9 26.1 0.00 0.00 0.00 21 1002.2
20260905232021 85 170 16.5 26.1 0.00 0.00 0.00 21 1002.2
20260905231520 85 222 16.5 25.2 0.00 0.00 0.00 21 1002.1
20260905231021 85 164 13.0 23.5 0.00 0.00 0.00 21 1002.3
20260905230519 85 180 15.6 25.2 0.00 0.00 0.00 22 1002.4
20260905230019 85 172 13.9 25.2 0.00 0.00 0.00 22 1002.4
20260905225519 85 196 16.5 25.2 0.00 0.00 0.00 22 1002.4
20260905225021 85 185 17.4 22.6 0.00 0.00 0.00 21 1002.5
20260905224530 85 192 12.2 22.6 0.00 0.00 0.00 22 1002.5
20260905224021 85 152 13.0 26.1 0.00 0.00 0.00 21 1002.5
20260905223518 85 182 18.2 26.1 0.00 0.00 0.00 21 1002.7
20260905223017 85 153 11.3 22.6 0.00 0.00 0.00 21 1002.6
20260905222516 85 179 14.8 25.2 0.00 0.00 0.00 21 1002.6
20260905222015 85 212 19.1 25.2 0.00 0.00 0.00 20 1002.7
20260905221517 85 158 12.2 23.5 0.00 0.00 0.00 21 1002.8
20260905221019 85 174 16.5 23.5 0.00 0.00 0.00 20 1002.8
20260905220514 84 181 17.4 23.5 0.00 0.00 0.00 20 1002.9
20260905220014 84 171 14.8 25.2 0.00 0.00 0.00 22 1002.8
20260905215514 85 166 15.6 25.2 0.00 0.00 0.00 21 1002.8
20260905215013 84 198 12.2 24.3 0.00 0.00 0.00 21 1003.0
20260905214513 84 199 14.8 24.3 0.00 0.00 0.00 20 1003.0
20260905214013 84 188 15.6 20.9 0.00 0.00 0.00 20 1003.2
20260905213512 83 145 16.5 25.2 0.00 0.00 0.00 22 1003.1
20260905213012 83 160 17.4 23.5 0.00 0.00 0.00 21 1003.0
20260905212513 83 149 17.4 23.5 0.00 0.00 0.00 22 1003.2
20260905212015 82 167 20.0 25.2 0.00 0.00 0.00 22 1003.3
20260905211511 83 122 16.5 24.3 0.00 0.00 0.00 22 1003.2
20260905211011 83 184 15.6 24.3 0.00 0.00 0.00 22 1003.4
20260905210514 84 151 14.8 24.3 0.00 0.00 0.00 21 1003.4
20260905210010 84 175 15.6 23.5 0.00 0.00 0.00 21 1003.3
20260905205509 83 167 15.6 23.5 0.00 0.00 0.00 21 1003.5
20260905205009 83 145 18.2 26.9 0.00 0.00 0.00 21 1003.6
20260905204509 83 163 13.0 24.3 0.00 0.00 0.00 23 1003.5
20260905204008 83 158 15.6 24.3 0.00 0.00 0.00 21 1003.7
20260905203507 82 135 16.5 24.3 0.00 0.00 0.00 22 1003.6
20260905203008 82 185 12.2 22.6 0.00 0.00 0.00 22 1003.7
20260905202507 82 161 18.2 25.2 0.00 0.00 0.00 22 1003.8
20260905202006 81 147 13.0 26.9 0.00 0.00 0.00 23 1003.8
20260905201507 82 149 18.2 28.7 0.00 0.00 0.00 22 1003.8
20260905201010 81 155 21.7 28.7 0.00 0.00 0.00 23 1003.9
20260905200506 83 142 17.4 26.1 0.00 0.00 0.00 22 1003.8
20260905200004 83 173 16.5 26.1 0.00 0.00 0.00 23 1003.8
20260905195505 82 188 18.2 25.2 0.00 0.00 0.00 23 1003.8
20260905195007 81 155 17.4 29.5 0.00 0.00 0.00 24 1003.8
20260905194504 82 134 17.4 25.2 0.00 0.00 0.00 23 1003.9
20260905194103 82 177 16.5 21.7 0.00 0.00 0.00 22 1004.1
20260905193502 82 127 16.5 20.9 0.00 0.00 0.00 23 1004.1
20260905193004 81 143 15.6 24.3 0.00 0.00 0.00 23 1004.3
20260905192501 81 140 12.2 22.6 0.00 0.00 0.00 23 1004.3
20260905192100 81 182 16.5 22.6 0.00 0.00 0.00 22 1004.5
20260905191559 80 145 13.9 24.3 0.00 0.00 0.00 24 1004.5
20260905191059 80 164 15.6 24.3 0.00 0.00 0.00 23 1004.5
20260905190558 80 189 15.6 23.5 0.00 0.00 0.00 23 1004.6
20260905190059 80 144 15.6 23.5 0.00 0.00 0.00 23 1004.6
20260905185559 80 166 13.0 22.6 0.00 0.00 0.00 24 1004.7
20260905185058 80 137 15.6 22.6 0.00 0.00 0.00 23 1004.7
20260905184601 80 126 13.9 24.3 0.00 0.00 0.00 24 1004.9
20260905184057 79 149 13.9 24.3 0.00 0.00 0.00 23 1004.8
20260905183557 79 126 15.6 21.7 0.00 0.00 0.00 23 1005.0
20260905183059 79 186 12.2 20.9 0.00 0.00 0.00 24 1005.0
20260905182557 79 140 12.2 20.9 0.00 0.00 0.00 23 1005.2
20260905182056 79 151 13.0 22.6 0.00 0.00 0.00 24 1005.3
20260905181609 79 153 14.8 22.6 0.00 0.00 0.00 24 1005.4
20260905181057 79 147 11.3 22.6 0.00 0.00 0.00 25 1005.4
20260905180554 78 134 16.5 22.6 0.00 0.00 0.00 25 1005.5
20260905180053 78 131 16.5 24.3 0.00 0.00 0.00 26 1005.4
20260905175554 78 142 14.8 22.6 0.00 0.00 0.00 25 1005.4
20260905175055 78 165 16.5 21.7 0.00 0.00 0.00 26 1005.3
20260905174554 78 175 15.6 26.1 0.00 0.00 0.00 24 1005.5
20260905174052 77 167 17.4 29.5 0.00 0.00 0.00 25 1005.5
20260905173552 78 122 17.4 29.5 0.00 0.00 0.00 24 1005.4
20260905173051 78 128 15.6 20.9 0.00 0.00 0.00 26 1005.4
20260905172551 78 147 15.6 20.9 0.00 0.00 0.00 25 1005.4
20260905172049 78 124 14.8 22.6 0.00 0.00 0.00 24 1005.4
20260905171549 77 151 15.6 24.3 0.00 0.00 0.00 24 1005.5
20260905171048 77 137 15.6 24.3 0.00 0.00 0.00 25 1005.4
20260905170548 77 131 14.8 24.3 0.00 0.00 0.00 25 1005.4
20260905170050 77 180 18.2 25.2 0.00 0.00 0.00 25 1005.5
20260905165547 77 138 18.2 24.3 0.00 0.00 0.00 25 1005.5
20260905165048 77 139 17.4 24.3 0.00 0.00 0.00 25 1005.4
20260905164547 76 148 16.5 21.7 0.00 0.00 0.00 26 1005.4
20260905164050 76 152 16.5 22.6 0.00 0.00 0.00 25 1005.4
20260905163547 76 136 15.6 22.6 0.00 0.00 0.00 26 1005.4
20260905163049 76 145 16.5 20.9 0.00 0.00 0.00 26 1005.5
20260905162547 77 158 12.2 24.3 0.00 0.00 0.00 26 1005.4
20260905162045 77 135 12.2 21.7 0.00 0.00 0.00 26 1005.4
20260905161543 76 161 13.0 21.7 0.00 0.00 0.00 26 1005.4
20260905161043 75 122 14.8 20.9 0.00 0.00 0.00 28 1005.3
20260905160541 75 122 14.8 20.9 0.00 0.00 0.00 27 1005.5
20260905160108 75 138 14.8 18.2 0.00 0.00 0.00 27 1005.4
20260905155542 75 138 13.0 19.1 0.00 0.00 0.00 27 1005.4
20260905155139 74 153 13.0 19.1 0.00 0.00 0.00 28 1005.5
20260905154540 74 136 13.9 19.1 0.00 0.00 0.00 27 1005.5
20260905154039 74 149 12.2 19.1 0.00 0.00 0.00 27 1005.5
20260905153538 74 122 13.0 18.2 0.00 0.00 0.00 26 1005.5
20260905153037 74 131 11.3 17.4 0.00 0.00 0.00 27 1005.5
20260905152537 74 130 9.6 20.0 0.00 0.00 0.00 29 1005.6
20260905152034 73 116 13.0 20.0 0.00 0.00 0.00 27 1005.6
20260905151535 72 137 13.0 17.4 0.00 0.00 0.00 29 1005.6
20260905151032 72 124 12.2 18.2 0.00 0.00 0.00 31 1005.6
20260905150531 71 115 13.9 17.4 0.00 0.00 0.00 31 1005.5
20260905150030 71 126 13.0 17.4 0.00 0.00 0.00 32 1005.6
20260905145527 71 117 13.9 20.9 0.00 0.00 0.00 31 1005.6
20260905145029 70 148 10.4 18.2 0.00 0.00 0.00 34 1005.6
20260905144526 69 128 9.6 13.9 0.00 0.00 0.00 35 1005.6
20260905144031 69 133 10.4 13.9 0.00 0.00 0.00 35 1005.6
20260905143527 68 149 9.6 13.0 0.00 0.00 0.00 35 1005.6
20260905143025 67 132 10.4 12.2 0.00 0.00 0.00 35 1005.6
20260905142524 66 139 7.0 11.3 0.00 0.00 0.00 37 1005.6
20260905142023 65 120 8.7 11.3 0.00 0.00 0.00 37 1005.4
20260905141523 64 133 7.0 11.3 0.00 0.00 0.00 38 1005.3
20260905141022 63 116 7.8 11.3 0.00 0.00 0.00 39 1005.2
20260905140525 62 131 7.0 11.3 0.00 0.00 0.00 39 1005.2
20260905140021 62 113 8.7 13.0 0.00 0.00 0.00 39 1005.1
20260905135520 61 146 9.6 13.0 0.00 0.00 0.00 40 1005.0
20260905135019 60 138 9.6 13.9 0.00 0.00 0.00 40 1004.9
20260905134521 59 152 7.8 12.2 0.00 0.00 0.00 41 1005.0
20260905134021 59 131 7.0 10.4 0.00 0.00 0.00 41 1004.9
20260905133517 59 161 7.0 10.4 0.00 0.00 0.00 39 1004.9
20260905133016 58 145 7.8 12.2 0.00 0.00 0.00 41 1004.7
20260905132517 58 151 7.0 12.2 0.00 0.00 0.00 42 1004.6
20260905132015 56 145 8.7 11.3 0.00 0.00 0.00 43 1004.5
20260905131514 56 157 6.1 9.6 0.00 0.00 0.00 43 1004.4
20260905131013 57 168 7.0 9.6 0.00 0.00 0.00 41 1004.4
20260905130512 59 165 7.0 12.2 0.00 0.00 0.00 40 1004.3
20260905130011 58 147 8.7 12.2 0.00 0.00 0.00 41 1004.3
20260905125513 58 172 7.0 8.7 0.00 0.00 0.00 40 1004.3
20260905125009 60 192 6.1 9.6 0.00 0.00 0.00 39 1004.2
20260905124508 60 145 6.1 9.6 0.00 0.00 0.00 39 1004.2
20260905124009 60 132 7.8 9.6 0.00 0.00 0.00 39 1004.1
20260905123505 61 159 7.0 13.0 0.00 0.00 0.00 38 1004.1
20260905123004 61 124 8.7 13.0 0.00 0.00 0.00 38 1004.0
20260905122508 61 116 8.7 13.9 0.00 0.00 0.00 39 1003.9
20260905122005 61 143 8.7 13.0 0.00 0.00 0.00 38 1003.8
20260905121502 63 153 7.8 13.0 0.00 0.00 0.00 37 1003.8
20260905121005 63 125 9.6 15.6 0.00 0.00 0.00 37 1003.8
20260905120501 63 137 11.3 15.6 0.00 0.00 0.00 37 1003.7
20260905120118 63 169 7.0 13.9 0.00 0.00 0.00 36 1003.8
20260905115600 62 122 7.0 14.8 0.00 0.00 0.00 37 1003.6
20260905115103 62 147 8.7 14.8 0.00 0.00 0.00 37 1003.7
20260905114559 62 117 8.7 13.0 0.00 0.00 0.00 37 1003.6
20260905114058 63 138 9.6 13.9 0.00 0.00 0.00 37 1003.6
20260905113559 63 145 9.6 14.8 0.00 0.00 0.00 36 1003.6
20260905113059 65 134 7.8 16.5 0.00 0.00 0.00 36 1003.6
20260905112558 65 122 11.3 19.1 0.00 0.00 0.00 35 1003.6
20260905112057 65 129 13.0 18.2 0.00 0.00 0.00 35 1003.6
20260905111610 65 131 10.4 18.2 0.00 0.00 0.00 36 1003.7
20260905111056 64 132 10.4 16.5 0.00 0.00 0.00 36 1003.6
20260905110555 63 139 12.2 18.2 0.00 0.00 0.00 38 1003.6
20260905110100 63 134 10.4 19.1 0.00 0.00 0.00 37 1003.5
20260905105556 64 134 12.2 19.1 0.00 0.00 0.00 37 1003.5
20260905105054 63 139 11.3 19.1 0.00 0.00 0.00 38 1003.4
20260905104554 63 132 13.9 19.1 0.00 0.00 0.00 38 1003.3
20260905104054 63 131 13.0 18.2 0.00 0.00 0.00 38 1003.3
20260905103554 63 133 13.0 18.2 0.00 0.00 0.00 39 1003.3
20260905103054 63 149 12.2 19.1 0.00 0.00 0.00 40 1003.3
20260905102551 63 134 11.3 19.1 0.00 0.00 0.00 40 1003.3
20260905102051 62 138 12.2 17.4 0.00 0.00 0.00 41 1003.3
20260905101550 62 130 12.2 18.2 0.00 0.00 0.00 40 1003.2
20260905101049 63 133 11.3 18.2 0.00 0.00 0.00 41 1003.2
20260905100548 63 144 13.0 18.2 0.00 0.00 0.00 41 1003.1
20260905100052 63 143 13.0 18.2 0.00 0.00 0.00 40 1003.0
20260905095547 64 145 12.2 16.5 0.00 0.00 0.00 39 1003.0
20260905095046 67 143 12.2 18.2 0.00 0.00 0.00 36 1002.9
20260905094546 69 151 13.9 19.1 0.00 0.00 0.00 33 1002.9
20260905094044 69 149 13.0 20.0 0.00 0.00 0.00 32 1002.7
20260905093544 68 155 13.9 20.0 0.00 0.00 0.00 32 1002.7
20260905093043 69 168 13.0 20.0 0.00 0.00 0.00 33 1002.6
20260905092546 69 156 13.9 18.2 0.00 0.00 0.00 33 1002.6
20260905092042 69 158 11.3 15.6 0.00 0.00 0.00 33 1002.6
20260905091613 69 183 12.2 20.0 0.00 0.00 0.00 32 1002.4
20260905091040 69 153 13.0 20.0 0.00 0.00 0.00 33 1002.4
20260905090540 69 157 15.6 18.2 0.00 0.00 0.00 33 1002.4
20260905090040 68 160 12.2 18.2 0.00 0.00 0.00 34 1002.4
20260905085539 67 170 13.9 17.4 0.00 0.00 0.00 36 1002.3
20260905085038 65 152 13.0 17.4 0.00 0.00 0.00 40 1002.4
20260905084540 64 145 12.2 17.4 0.00 0.00 0.00 42 1002.4
20260905084038 64 130 11.3 15.6 0.00 0.00 0.00 42 1002.4
20260905083537 64 129 9.6 14.8 0.00 0.00 0.00 43 1002.5
20260905083037 64 153 11.3 14.8 0.00 0.00 0.00 43 1002.4
20260905082536 64 135 10.4 16.5 0.00 0.00 0.00 42 1002.3
20260905082036 65 152 10.4 17.4 0.00 0.00 0.00 41 1002.3
20260905081535 65 140 9.6 12.2 0.00 0.00 0.00 40 1002.3
20260905081034 65 153 9.6 13.0 0.00 0.00 0.00 39 1002.2
20260905080536 66 145 8.7 12.2 0.00 0.00 0.00 37 1002.2
20260905080516 66 141 8.7 12.2 0.00 0.00 0.00 37 1002.2
20260905080040 67 155 8.7 12.2 0.00 0.00 0.00 36 1002.2
20260905075532 67 159 9.6 14.8 0.00 0.00 0.00 36 1002.1
20260905075030 66 155 10.4 14.8 0.00 0.00 0.00 39 1002.1
20260905074530 62 153 9.6 14.8 0.00 0.00 0.00 45 1002.0
20260905074033 63 143 10.4 14.8 0.00 0.00 0.00 45 1002.0
20260905073529 64 127 10.4 13.9 0.00 0.00 0.00 43 1002.0
20260905073028 67 140 9.6 13.9 0.00 0.00 0.00 40 1001.9
20260905072527 65 161 12.2 13.9 0.00 0.00 0.00 40 1001.8
20260905072026 64 149 10.4 17.4 0.00 0.00 0.00 43 1001.7
20260905071524 62 141 8.7 13.0 0.00 0.00 0.00 46 1001.6
20260905071027 63 137 8.7 14.8 0.00 0.00 0.00 45 1001.5
20260905070521 63 156 10.4 16.5 0.00 0.00 0.00 44 1001.4
20260905070024 64 144 12.2 16.5 0.00 0.00 0.00 43 1001.3
20260905065519 65 148 10.4 14.8 0.00 0.00 0.00 42 1001.2
20260905065018 66 130 9.6 15.6 0.00 0.00 0.00 41 1001.2
20260905064519 67 129 10.4 17.4 0.00 0.00 0.00 41 1001.2
20260905064016 66 136 10.4 15.6 0.00 0.00 0.00 41 1001.1
20260905063515 66 123 10.4 15.6 0.00 0.00 0.00 41 1001.1
20260905063015 66 131 9.6 13.9 0.00 0.00 0.00 41 1001.0
20260905062518 66 122 11.3 13.9 0.00 0.00 0.00 41 1001.0
20260905062013 66 136 9.6 13.9 0.00 0.00 0.00 42 1001.0
20260905061512 66 136 8.7 12.2 0.00 0.00 0.00 42 1000.9
20260905061012 67 120 8.7 14.8 0.00 0.00 0.00 41 1000.9
20260905060513 68 141 8.7 14.8 0.00 0.00 0.00 39 1000.8
20260905060012 69 146 10.4 15.6 0.00 0.00 0.00 38 1000.8
20260905055509 70 151 11.3 15.6 0.00 0.00 0.00 37 1000.6
20260905055009 70 166 11.3 18.2 0.00 0.00 0.00 37 1000.5
20260905054514 71 131 13.0 18.2 0.00 0.00 0.00 37 1000.5
20260905054006 71 147 11.3 18.2 0.00 0.00 0.00 36 1000.5